{"data":{"norad_id":51860,"intl_designator":"2022-022J","name":"STARLINK-3559","alt_names":[],"object_type":"PAYLOAD","status":"ACTIVE","operator":null,"country":"US","launch_date":"2022-03-03","launch_site_code":"AFETR","launch_vehicle":null,"mission":null,"orbit_class":"UNKNOWN","rcs_meters":null,"size_class":null,"mass_kg":null,"dimensions":null,"purposes":["comms"],"wikipedia_slug":null,"has_3d_model":false,"image_url":null,"decayed_at":null,"tle_current":{"epoch":"2026-05-25T02:28:44.174784Z","epoch_age_seconds":66936,"freshness":"FRESH","line1":"1 51860U 22022J   26145.10328906  .00000789  00000+0  67685-4 0  9994","line2":"2 51860  53.2129  26.0836 0001244  80.5508 279.5624 15.08827669234653","mean_motion":15.08827669,"eccentricity":0.0001244,"inclination_deg":53.2129,"raan_deg":26.0836,"arg_perigee_deg":80.5508,"mean_anomaly_deg":279.5624,"bstar":6.7685e-5,"rev_number":23465,"period_min":95.438334647878,"perigee_km":538.92049114553,"apogee_km":540.64166916388,"semimajor_km":6917.9180801547,"source":"CELESTRAK","updated_at":"2026-05-25T13:38:16.960943Z"}}}